Time,TemperatureF,DewpointF,PressureIn,WindDirection,WindDirectionDegrees,WindSpeedMPH,WindSpeedGustMPH,Humidity,HourlyPrecipIn,Conditions,Clouds,dailyrainin,SoftwareType,DateUTC
2013-01-08 00:03:00,25.0,19.8,29.25,North,0,0.0,0.0,80,0.00,,,0.00,WUHU216HW,2013-01-08 06:03:00,
2013-01-08 00:08:00,25.2,20.3,29.25,North,0,0.0,0.0,81,0.00,,,0.00,WUHU216HW,2013-01-08 06:08:00,
2013-01-08 00:13:00,25.4,20.3,29.25,North,0,0.0,0.0,81,0.00,,,0.00,WUHU216HW,2013-01-08 06:13:00,
2013-01-08 00:18:00,25.2,20.0,29.25,North,0,0.0,0.0,80,0.00,,,0.00,WUHU216HW,2013-01-08 06:18:00,
2013-01-08 00:23:00,25.2,20.0,29.25,North,0,0.0,0.0,80,0.00,,,0.00,WUHU216HW,2013-01-08 06:23:00,
2013-01-08 00:28:00,24.8,19.6,29.25,North,0,0.0,0.0,80,0.00,,,0.00,WUHU216HW,2013-01-08 06:28:00,
2013-01-08 00:33:00,24.7,19.4,29.24,North,0,0.0,0.0,80,0.00,,,0.00,WUHU216HW,2013-01-08 06:33:00,
2013-01-08 00:38:00,24.5,19.3,29.25,North,0,0.0,0.0,80,0.00,,,0.00,WUHU216HW,2013-01-08 06:38:00,
2013-01-08 00:43:00,24.3,19.1,29.25,North,0,0.0,0.0,80,0.00,,,0.00,WUHU216HW,2013-01-08 06:43:00,
2013-01-08 00:48:00,24.3,19.1,29.25,North,0,0.0,0.0,80,0.00,,,0.00,WUHU216HW,2013-01-08 06:48:00,
2013-01-08 00:53:00,24.1,19.2,29.25,North,0,0.0,0.0,81,0.00,,,0.00,WUHU216HW,2013-01-08 06:53:00,
2013-01-08 00:58:00,24.1,19.2,29.25,North,0,0.0,0.0,81,0.00,,,0.00,WUHU216HW,2013-01-08 06:58:00,
2013-01-08 01:03:00,23.9,19.0,29.25,North,0,0.0,0.0,81,0.00,,,0.00,WUHU216HW,2013-01-08 07:03:00,
2013-01-08 01:08:00,23.8,18.8,29.25,North,0,0.0,0.0,81,0.00,,,0.00,WUHU216HW,2013-01-08 07:08:00,
2013-01-08 01:13:00,23.6,18.6,29.25,North,0,0.0,0.0,81,0.00,,,0.00,WUHU216HW,2013-01-08 07:13:00,
2013-01-08 01:18:00,23.6,18.6,29.25,North,0,0.0,0.0,81,0.00,,,0.00,WUHU216HW,2013-01-08 07:18:00,
2013-01-08 01:23:00,23.6,18.9,29.25,North,0,0.0,0.0,82,0.00,,,0.00,WUHU216HW,2013-01-08 07:23:00,
2013-01-08 01:28:00,23.6,18.9,29.24,North,0,0.0,0.0,82,0.00,,,0.00,WUHU216HW,2013-01-08 07:28:00,
2013-01-08 01:33:00,23.2,18.3,29.24,North,0,0.0,0.0,81,0.00,,,0.00,WUHU216HW,2013-01-08 07:33:00,
2013-01-08 01:38:00,22.9,17.9,29.25,North,0,0.0,0.0,81,0.00,,,0.00,WUHU216HW,2013-01-08 07:38:00,
2013-01-08 01:43:00,22.7,17.7,29.25,North,0,0.0,0.0,81,0.00,,,0.00,WUHU216HW,2013-01-08 07:43:00,
2013-01-08 01:48:00,22.3,17.6,29.25,North,0,0.0,0.0,82,0.00,,,0.00,WUHU216HW,2013-01-08 07:48:00,
2013-01-08 01:53:00,22.0,17.3,29.25,North,0,0.0,0.0,82,0.00,,,0.00,WUHU216HW,2013-01-08 07:53:00,
2013-01-08 01:58:00,22.0,17.3,29.25,North,0,0.0,0.0,82,0.00,,,0.00,WUHU216HW,2013-01-08 07:58:00,
2013-01-08 02:03:00,21.8,17.1,29.25,North,0,0.0,0.0,82,0.00,,,0.00,WUHU216HW,2013-01-08 08:03:00,
2013-01-08 02:08:00,21.6,16.9,29.25,North,0,0.0,0.0,82,0.00,,,0.00,WUHU216HW,2013-01-08 08:08:00,
2013-01-08 02:13:00,21.4,16.7,29.25,North,0,0.0,0.0,82,0.00,,,0.00,WUHU216HW,2013-01-08 08:13:00,
2013-01-08 02:18:00,21.4,16.7,29.25,North,0,0.0,0.0,82,0.00,,,0.00,WUHU216HW,2013-01-08 08:18:00,
2013-01-08 02:23:00,21.4,16.7,29.25,North,0,0.0,0.0,82,0.00,,,0.00,WUHU216HW,2013-01-08 08:23:00,
2013-01-08 02:28:00,21.1,16.4,29.25,North,0,0.0,0.0,82,0.00,,,0.00,WUHU216HW,2013-01-08 08:28:00,
2013-01-08 02:33:00,20.7,16.3,29.25,North,0,0.0,0.0,83,0.00,,,0.00,WUHU216HW,2013-01-08 08:33:00,
2013-01-08 02:38:00,20.5,16.1,29.25,North,0,0.0,0.0,83,0.00,,,0.00,WUHU216HW,2013-01-08 08:38:00,
2013-01-08 02:43:00,20.2,15.5,29.25,North,0,0.0,0.0,82,0.00,,,0.00,WUHU216HW,2013-01-08 08:43:00,
2013-01-08 02:48:00,19.8,15.1,29.25,North,0,0.0,0.0,82,0.00,,,0.00,WUHU216HW,2013-01-08 08:48:00,
2013-01-08 02:53:00,19.8,15.1,29.25,North,0,0.0,0.0,82,0.00,,,0.00,WUHU216HW,2013-01-08 08:53:00,
2013-01-08 02:58:00,19.6,14.9,29.25,North,0,0.0,0.0,82,0.00,,,0.00,WUHU216HW,2013-01-08 08:58:00,
2013-01-08 03:03:00,19.4,14.8,29.24,North,0,0.0,0.0,82,0.00,,,0.00,WUHU216HW,2013-01-08 09:03:00,
2013-01-08 03:08:00,18.7,14.0,29.24,North,0,0.0,0.0,82,0.00,,,0.00,WUHU216HW,2013-01-08 09:08:00,
2013-01-08 03:13:00,18.2,13.8,29.24,North,0,0.0,0.0,83,0.00,,,0.00,WUHU216HW,2013-01-08 09:13:00,
2013-01-08 03:18:00,18.2,13.8,29.24,North,0,0.0,0.0,83,0.00,,,0.00,WUHU216HW,2013-01-08 09:18:00,
2013-01-08 03:23:00,17.6,13.2,29.24,North,0,0.0,0.0,83,0.00,,,0.00,WUHU216HW,2013-01-08 09:23:00,
2013-01-08 03:28:00,17.5,13.1,29.24,North,0,0.0,0.0,83,0.00,,,0.00,WUHU216HW,2013-01-08 09:28:00,
2013-01-08 03:33:00,16.9,12.6,29.24,North,0,0.0,0.0,83,0.00,,,0.00,WUHU216HW,2013-01-08 09:33:00,
2013-01-08 03:38:00,16.6,12.3,29.24,North,0,0.0,0.0,83,0.00,,,0.00,WUHU216HW,2013-01-08 09:38:00,
2013-01-08 03:43:00,16.2,11.9,29.24,North,0,0.0,0.0,83,0.00,,,0.00,WUHU216HW,2013-01-08 09:43:00,
2013-01-08 03:48:00,16.2,12.2,29.23,North,0,0.0,0.0,84,0.00,,,0.00,WUHU216HW,2013-01-08 09:48:00,
2013-01-08 03:53:00,16.0,12.0,29.23,North,0,0.0,0.0,84,0.00,,,0.00,WUHU216HW,2013-01-08 09:53:00,
2013-01-08 03:58:00,15.8,11.8,29.23,North,0,0.0,0.0,84,0.00,,,0.00,WUHU216HW,2013-01-08 09:58:00,
2013-01-08 04:03:00,16.0,12.0,29.23,North,0,0.0,0.0,84,0.00,,,0.00,WUHU216HW,2013-01-08 10:03:00,
2013-01-08 04:08:00,16.4,12.3,29.23,North,0,0.0,0.0,84,0.00,,,0.00,WUHU216HW,2013-01-08 10:08:00,
2013-01-08 04:13:00,15.8,11.8,29.23,North,0,0.0,0.0,84,0.00,,,0.00,WUHU216HW,2013-01-08 10:13:00,
2013-01-08 04:18:00,15.5,11.4,29.23,North,0,0.0,0.0,84,0.00,,,0.00,WUHU216HW,2013-01-08 10:18:00,
2013-01-08 04:23:00,15.3,11.3,29.23,North,0,0.0,0.0,84,0.00,,,0.00,WUHU216HW,2013-01-08 10:23:00,
2013-01-08 04:28:00,14.8,10.8,29.23,North,0,0.0,0.0,84,0.00,,,0.00,WUHU216HW,2013-01-08 10:28:00,
2013-01-08 04:33:00,14.8,10.8,29.23,North,0,0.0,0.0,84,0.00,,,0.00,WUHU216HW,2013-01-08 10:33:00,
2013-01-08 04:38:00,14.9,11.0,29.23,North,0,0.0,0.0,84,0.00,,,0.00,WUHU216HW,2013-01-08 10:38:00,
2013-01-08 04:43:00,14.8,10.8,29.23,North,0,0.0,0.0,84,0.00,,,0.00,WUHU216HW,2013-01-08 10:43:00,
2013-01-08 04:48:00,14.8,10.8,29.23,North,0,0.0,0.0,84,0.00,,,0.00,WUHU216HW,2013-01-08 10:48:00,
2013-01-08 04:53:00,14.6,10.6,29.23,North,0,0.0,0.0,84,0.00,,,0.00,WUHU216HW,2013-01-08 10:53:00,
2013-01-08 04:58:00,14.6,10.9,29.22,North,0,0.0,0.0,85,0.00,,,0.00,WUHU216HW,2013-01-08 10:58:00,
2013-01-08 05:03:00,14.4,10.7,29.22,North,0,0.0,0.0,85,0.00,,,0.00,WUHU216HW,2013-01-08 11:03:00,
2013-01-08 05:08:00,14.0,10.1,29.22,North,0,0.0,0.0,84,0.00,,,0.00,WUHU216HW,2013-01-08 11:08:00,
2013-01-08 05:13:00,14.0,10.4,29.22,North,0,0.0,0.0,85,0.00,,,0.00,WUHU216HW,2013-01-08 11:13:00,
2013-01-08 05:18:00,14.0,10.1,29.22,North,0,0.0,0.0,84,0.00,,,0.00,WUHU216HW,2013-01-08 11:18:00,
2013-01-08 05:23:00,13.3,9.4,29.23,North,0,0.0,0.0,84,0.00,,,0.00,WUHU216HW,2013-01-08 11:23:00,
2013-01-08 05:28:00,13.5,9.5,29.22,North,0,0.0,0.0,84,0.00,,,0.00,WUHU216HW,2013-01-08 11:28:00,
2013-01-08 05:33:00,14.0,10.4,29.22,North,0,0.0,0.0,85,0.00,,,0.00,WUHU216HW,2013-01-08 11:33:00,
2013-01-08 05:38:00,13.7,9.7,29.22,North,0,0.0,0.0,84,0.00,,,0.00,WUHU216HW,2013-01-08 11:38:00,
2013-01-08 05:43:00,13.3,9.6,29.22,North,0,0.0,0.0,85,0.00,,,0.00,WUHU216HW,2013-01-08 11:43:00,
2013-01-08 05:48:00,13.9,9.9,29.22,North,0,0.0,0.0,84,0.00,,,0.00,WUHU216HW,2013-01-08 11:48:00,
2013-01-08 05:53:00,13.5,9.5,29.22,North,0,0.0,0.0,84,0.00,,,0.00,WUHU216HW,2013-01-08 11:53:00,
2013-01-08 05:58:00,13.5,9.8,29.22,North,0,0.0,0.0,85,0.00,,,0.00,WUHU216HW,2013-01-08 11:58:00,
2013-01-08 06:03:00,13.9,10.2,29.22,North,0,0.0,0.0,85,0.00,,,0.00,WUHU216HW,2013-01-08 12:03:00,
2013-01-08 06:08:00,14.0,10.4,29.23,North,0,0.0,0.0,85,0.00,,,0.00,WUHU216HW,2013-01-08 12:08:00,
2013-01-08 06:13:00,14.0,10.4,29.22,North,0,0.0,0.0,85,0.00,,,0.00,WUHU216HW,2013-01-08 12:13:00,
2013-01-08 06:18:00,14.0,10.4,29.23,North,0,0.0,0.0,85,0.00,,,0.00,WUHU216HW,2013-01-08 12:18:00,
2013-01-08 06:23:00,14.8,11.4,29.23,North,0,0.0,0.0,86,0.00,,,0.00,WUHU216HW,2013-01-08 12:23:00,
2013-01-08 06:28:00,14.9,11.4,29.23,North,0,0.0,0.0,86,0.00,,,0.00,WUHU216HW,2013-01-08 12:28:00,
2013-01-08 06:33:00,14.8,11.4,29.23,North,0,0.0,0.0,86,0.00,,,0.00,WUHU216HW,2013-01-08 12:33:00,
2013-01-08 06:38:00,15.3,11.8,29.23,North,0,0.0,0.0,86,0.00,,,0.00,WUHU216HW,2013-01-08 12:38:00,
2013-01-08 06:43:00,15.5,12.0,29.23,North,0,0.0,0.0,86,0.00,,,0.00,WUHU216HW,2013-01-08 12:43:00,
2013-01-08 06:48:00,14.8,11.4,29.23,North,0,0.0,0.0,86,0.00,,,0.00,WUHU216HW,2013-01-08 12:48:00,
2013-01-08 06:53:00,14.4,10.7,29.23,North,0,0.0,0.0,85,0.00,,,0.00,WUHU216HW,2013-01-08 12:53:00,
2013-01-08 06:58:00,14.6,11.2,29.23,North,0,0.0,0.0,86,0.00,,,0.00,WUHU216HW,2013-01-08 12:58:00,
2013-01-08 07:03:00,15.1,11.6,29.23,North,0,0.0,0.0,86,0.00,,,0.00,WUHU216HW,2013-01-08 13:03:00,
2013-01-08 07:08:00,14.9,11.2,29.22,North,0,0.0,0.0,85,0.00,,,0.00,WUHU216HW,2013-01-08 13:08:00,
2013-01-08 07:13:00,14.6,10.9,29.22,North,0,0.0,0.0,85,0.00,,,0.00,WUHU216HW,2013-01-08 13:13:00,
2013-01-08 07:18:00,14.0,10.4,29.23,North,0,0.0,0.0,85,0.00,,,0.00,WUHU216HW,2013-01-08 13:18:00,
2013-01-08 07:23:00,14.2,10.5,29.22,North,0,0.0,0.0,85,0.00,,,0.00,WUHU216HW,2013-01-08 13:23:00,
2013-01-08 07:28:00,14.4,10.7,29.23,North,0,0.0,0.0,85,0.00,,,0.00,WUHU216HW,2013-01-08 13:28:00,
2013-01-08 07:33:00,14.8,11.4,29.23,North,0,0.0,0.0,86,0.00,,,0.00,WUHU216HW,2013-01-08 13:33:00,
2013-01-08 07:38:00,15.8,12.6,29.23,North,0,0.0,0.0,87,0.00,,,0.00,WUHU216HW,2013-01-08 13:38:00,
2013-01-08 07:43:00,15.7,12.2,29.23,North,0,0.0,0.0,86,0.00,,,0.00,WUHU216HW,2013-01-08 13:43:00,
2013-01-08 07:48:00,16.2,12.9,29.23,North,0,0.0,0.0,87,0.00,,,0.00,WUHU216HW,2013-01-08 13:48:00,
2013-01-08 07:53:00,16.7,13.4,29.23,North,0,0.0,0.0,87,0.00,,,0.00,WUHU216HW,2013-01-08 13:53:00,
2013-01-08 07:58:00,16.9,13.6,29.23,North,0,0.0,0.0,87,0.00,,,0.00,WUHU216HW,2013-01-08 13:58:00,
2013-01-08 08:03:00,17.1,13.8,29.23,North,0,0.0,0.0,87,0.00,,,0.00,WUHU216HW,2013-01-08 14:03:00,
2013-01-08 08:08:00,17.1,13.8,29.23,North,0,0.0,0.0,87,0.00,,,0.00,WUHU216HW,2013-01-08 14:08:00,
2013-01-08 08:13:00,17.3,14.0,29.23,North,0,0.0,0.0,87,0.00,,,0.00,WUHU216HW,2013-01-08 14:13:00,
2013-01-08 08:18:00,17.5,14.1,29.23,North,0,0.0,0.0,87,0.00,,,0.00,WUHU216HW,2013-01-08 14:18:00,
2013-01-08 08:23:00,17.6,14.3,29.23,North,0,0.0,0.0,87,0.00,,,0.00,WUHU216HW,2013-01-08 14:23:00,
2013-01-08 08:28:00,17.8,14.5,29.23,North,0,0.0,0.0,87,0.00,,,0.00,WUHU216HW,2013-01-08 14:28:00,
2013-01-08 08:33:00,18.0,14.7,29.23,North,0,0.0,0.0,87,0.00,,,0.00,WUHU216HW,2013-01-08 14:33:00,
2013-01-08 08:38:00,18.0,14.7,29.23,North,0,0.0,0.0,87,0.00,,,0.00,WUHU216HW,2013-01-08 14:38:00,
2013-01-08 08:43:00,18.4,15.0,29.23,North,0,0.0,0.0,87,0.00,,,0.00,WUHU216HW,2013-01-08 14:43:00,
2013-01-08 08:48:00,18.5,15.2,29.23,North,0,0.0,0.0,87,0.00,,,0.00,WUHU216HW,2013-01-08 14:48:00,
2013-01-08 08:53:00,19.1,15.8,29.23,ESE,113,0.4,0.4,87,0.00,,,0.00,WUHU216HW,2013-01-08 14:53:00,
2013-01-08 08:58:00,19.4,16.1,29.23,ESE,113,0.4,0.4,87,0.00,,,0.00,WUHU216HW,2013-01-08 14:58:00,
2013-01-08 09:03:00,19.8,16.5,29.22,East,90,0.4,0.4,87,0.00,,,0.00,WUHU216HW,2013-01-08 15:03:00,
2013-01-08 09:08:00,20.2,16.8,29.21,East,90,0.9,0.9,87,0.00,,,0.00,WUHU216HW,2013-01-08 15:08:00,
2013-01-08 09:13:00,20.5,17.2,29.21,East,90,1.3,1.3,87,0.00,,,0.00,WUHU216HW,2013-01-08 15:13:00,
2013-01-08 09:18:00,21.2,17.9,29.21,ESE,113,2.5,2.5,87,0.00,,,0.00,WUHU216HW,2013-01-08 15:18:00,
2013-01-08 09:23:00,21.6,18.3,29.21,East,90,1.8,2.7,87,0.00,,,0.00,WUHU216HW,2013-01-08 15:23:00,
2013-01-08 09:28:00,22.1,18.8,29.20,East,90,2.5,2.9,87,0.00,,,0.00,WUHU216HW,2013-01-08 15:28:00,
2013-01-08 09:33:00,22.7,19.4,29.21,ESE,113,2.5,2.9,87,0.00,,,0.00,WUHU216HW,2013-01-08 15:33:00,
2013-01-08 09:38:00,23.2,20.2,29.21,East,90,1.8,2.7,88,0.00,,,0.00,WUHU216HW,2013-01-08 15:38:00,
2013-01-08 09:43:00,23.6,20.5,29.21,ESE,113,1.1,2.5,88,0.00,,,0.00,WUHU216HW,2013-01-08 15:43:00,
2013-01-08 09:48:00,24.1,20.8,29.21,ESE,113,1.1,1.8,87,0.00,,,0.00,WUHU216HW,2013-01-08 15:48:00,
2013-01-08 09:53:00,24.5,21.2,29.20,ESE,113,2.5,2.5,87,0.00,,,0.00,WUHU216HW,2013-01-08 15:53:00,
2013-01-08 09:58:00,24.8,21.2,29.20,ESE,113,1.6,3.4,86,0.00,,,0.00,WUHU216HW,2013-01-08 15:58:00,
2013-01-08 10:03:00,25.2,21.6,29.21,SE,135,1.8,3.4,86,0.00,,,0.00,WUHU216HW,2013-01-08 16:03:00,
2013-01-08 10:08:00,25.6,21.7,29.20,ESE,113,1.6,1.8,85,0.00,,,0.00,WUHU216HW,2013-01-08 16:08:00,
2013-01-08 10:13:00,25.6,21.7,29.20,SSE,158,1.3,2.0,85,0.00,,,0.00,WUHU216HW,2013-01-08 16:13:00,
2013-01-08 10:18:00,25.6,21.7,29.18,ESE,113,1.8,2.5,85,0.00,,,0.00,WUHU216HW,2013-01-08 16:18:00,
2013-01-08 10:23:00,25.7,21.9,29.19,ESE,113,2.0,2.5,85,0.00,,,0.00,WUHU216HW,2013-01-08 16:23:00,
2013-01-08 10:28:00,26.3,22.3,29.18,ESE,113,2.0,2.0,85,0.00,,,0.00,WUHU216HW,2013-01-08 16:28:00,
2013-01-08 10:33:00,26.3,22.3,29.17,ESE,113,2.7,2.7,85,0.00,,,0.00,WUHU216HW,2013-01-08 16:33:00,
2013-01-08 10:38:00,26.6,22.7,29.17,SE,135,2.9,3.6,85,0.00,,,0.00,WUHU216HW,2013-01-08 16:38:00,
2013-01-08 10:43:00,27.0,23.0,29.17,East,90,1.1,3.6,85,0.00,,,0.00,WUHU216HW,2013-01-08 16:43:00,
2013-01-08 10:48:00,27.5,23.3,29.18,ESE,113,1.8,2.2,84,0.00,,,0.00,WUHU216HW,2013-01-08 16:48:00,
2013-01-08 10:53:00,28.3,24.3,29.17,East,90,2.2,2.2,85,0.00,,,0.00,WUHU216HW,2013-01-08 16:53:00,
2013-01-08 10:58:00,28.6,24.1,29.17,ESE,113,2.5,3.4,83,0.00,,,0.00,WUHU216HW,2013-01-08 16:58:00,
2013-01-08 11:03:00,29.2,24.7,29.16,ESE,113,2.9,3.4,83,0.00,,,0.00,WUHU216HW,2013-01-08 17:03:00,
2013-01-08 11:08:00,29.2,24.3,29.16,ESE,113,2.7,2.9,82,0.00,,,0.00,WUHU216HW,2013-01-08 17:08:00,
2013-01-08 11:13:00,29.9,24.8,29.16,East,90,1.3,3.6,81,0.00,,,0.00,WUHU216HW,2013-01-08 17:13:00,
2013-01-08 11:18:00,30.1,24.9,29.15,North,0,1.1,3.6,81,0.00,,,0.00,WUHU216HW,2013-01-08 17:18:00,
2013-01-08 11:23:00,30.6,25.5,29.16,East,90,0.4,2.0,81,0.00,,,0.00,WUHU216HW,2013-01-08 17:23:00,
2013-01-08 11:28:00,31.1,25.7,29.15,SE,135,2.7,2.7,80,0.00,,,0.00,WUHU216HW,2013-01-08 17:28:00,
2013-01-08 11:33:00,31.3,25.6,29.15,SE,135,1.8,2.7,79,0.00,,,0.00,WUHU216HW,2013-01-08 17:33:00,
2013-01-08 11:38:00,31.9,26.1,29.15,SE,135,1.1,2.5,79,0.00,,,0.00,WUHU216HW,2013-01-08 17:38:00,
2013-01-08 11:43:00,32.2,26.8,29.15,ESE,113,1.3,1.6,80,0.00,,,0.00,WUHU216HW,2013-01-08 17:43:00,
2013-01-08 11:48:00,32.4,26.3,29.15,East,90,2.2,2.2,78,0.00,,,0.00,WUHU216HW,2013-01-08 17:48:00,
2013-01-08 11:53:00,32.2,26.5,29.15,East,90,0.0,2.2,79,0.00,,,0.00,WUHU216HW,2013-01-08 17:53:00,
2013-01-08 11:58:00,32.6,26.5,29.14,SSE,158,1.8,1.8,78,0.00,,,0.00,WUHU216HW,2013-01-08 17:58:00,
2013-01-08 12:03:00,33.3,27.1,29.14,SSE,158,2.5,2.5,78,0.00,,,0.00,WUHU216HW,2013-01-08 18:03:00,
2013-01-08 12:08:00,34.2,27.4,29.14,SE,135,3.1,5.1,76,0.00,,,0.00,WUHU216HW,2013-01-08 18:08:00,
2013-01-08 12:13:00,34.7,27.9,29.13,SSE,158,3.6,5.1,76,0.00,,,0.00,WUHU216HW,2013-01-08 18:13:00,
2013-01-08 12:18:00,34.9,27.4,29.12,ESE,113,2.9,6.5,74,0.00,,,0.00,WUHU216HW,2013-01-08 18:18:00,
2013-01-08 12:23:00,35.1,27.5,29.12,ESE,113,2.7,7.2,74,0.00,,,0.00,WUHU216HW,2013-01-08 18:23:00,
2013-01-08 12:28:00,35.3,27.5,29.12,SE,135,7.4,7.4,73,0.00,,,0.00,WUHU216HW,2013-01-08 18:28:00,
2013-01-08 12:33:00,35.6,28.1,29.12,East,90,0.9,7.4,74,0.00,,,0.00,WUHU216HW,2013-01-08 18:33:00,
2013-01-08 12:38:00,36.2,28.4,29.12,SSE,158,2.5,7.6,73,0.00,,,0.00,WUHU216HW,2013-01-08 18:38:00,
2013-01-08 12:43:00,36.5,29.0,29.11,SSE,158,3.4,7.6,74,0.00,,,0.00,WUHU216HW,2013-01-08 18:43:00,
2013-01-08 12:48:00,36.9,29.1,29.11,SSE,158,1.8,3.8,73,0.00,,,0.00,WUHU216HW,2013-01-08 18:48:00,
2013-01-08 12:53:00,37.3,29.7,29.10,SSE,158,5.4,5.4,74,0.00,,,0.00,WUHU216HW,2013-01-08 18:53:00,
2013-01-08 12:58:00,37.1,28.9,29.09,SE,135,3.6,6.3,72,0.00,,,0.00,WUHU216HW,2013-01-08 18:58:00,
2013-01-08 13:03:00,37.1,28.9,29.09,SSE,158,4.9,7.4,72,0.00,,,0.00,WUHU216HW,2013-01-08 19:03:00,
2013-01-08 13:08:00,36.7,28.5,29.09,SE,135,5.4,7.4,72,0.00,,,0.00,WUHU216HW,2013-01-08 19:08:00,
2013-01-08 13:13:00,36.9,28.7,29.08,SE,135,7.8,7.8,72,0.00,,,0.00,WUHU216HW,2013-01-08 19:13:00,
2013-01-08 13:18:00,36.7,28.3,29.08,SE,135,4.9,7.8,71,0.00,,,0.00,WUHU216HW,2013-01-08 19:18:00,
2013-01-08 13:23:00,36.5,28.4,29.08,ESE,113,2.7,7.8,72,0.00,,,0.00,WUHU216HW,2013-01-08 19:23:00,
2013-01-08 13:28:00,36.5,28.1,29.08,WNW,293,4.5,5.8,71,0.00,,,0.00,WUHU216HW,2013-01-08 19:28:00,
2013-01-08 13:33:00,36.7,28.5,29.08,SSE,158,6.7,6.7,72,0.00,,,0.00,WUHU216HW,2013-01-08 19:33:00,
2013-01-08 13:38:00,36.7,28.5,29.07,SE,135,4.9,7.4,72,0.00,,,0.00,WUHU216HW,2013-01-08 19:38:00,
2013-01-08 13:43:00,36.4,27.9,29.07,SSE,158,5.8,7.4,71,0.00,,,0.00,WUHU216HW,2013-01-08 19:43:00,
2013-01-08 13:48:00,36.4,28.2,29.06,SE,135,4.0,7.4,72,0.00,,,0.00,WUHU216HW,2013-01-08 19:48:00,
2013-01-08 13:53:00,36.4,27.9,29.05,SE,135,9.6,9.6,71,0.00,,,0.00,WUHU216HW,2013-01-08 19:53:00,
2013-01-08 13:58:00,36.5,28.4,29.05,SSE,158,4.7,9.6,72,0.00,,,0.00,WUHU216HW,2013-01-08 19:58:00,
2013-01-08 14:03:00,37.1,28.6,29.05,SE,135,9.4,9.4,71,0.00,,,0.00,WUHU216HW,2013-01-08 20:03:00,
2013-01-08 14:08:00,36.9,28.5,29.05,SSE,158,6.7,9.4,71,0.00,,,0.00,WUHU216HW,2013-01-08 20:08:00,
2013-01-08 14:13:00,36.9,28.1,29.05,ESE,113,6.9,10.7,70,0.00,,,0.00,WUHU216HW,2013-01-08 20:13:00,
2013-01-08 14:18:00,36.7,28.3,29.05,SE,135,8.5,10.7,71,0.00,,,0.00,WUHU216HW,2013-01-08 20:18:00,
2013-01-08 14:23:00,36.5,28.1,29.05,SSE,158,9.2,9.2,71,0.00,,,0.00,WUHU216HW,2013-01-08 20:23:00,
2013-01-08 14:28:00,36.4,27.9,29.05,South,180,4.7,9.2,71,0.00,,,0.00,WUHU216HW,2013-01-08 20:28:00,
2013-01-08 14:33:00,36.2,27.7,29.04,SE,135,8.5,8.5,71,0.00,,,0.00,WUHU216HW,2013-01-08 20:33:00,
2013-01-08 14:38:00,36.0,27.8,29.04,SSE,158,8.3,8.5,72,0.00,,,0.00,WUHU216HW,2013-01-08 20:38:00,
2013-01-08 14:43:00,35.6,27.5,29.03,SSE,158,6.5,10.5,72,0.00,,,0.00,WUHU216HW,2013-01-08 20:43:00,
2013-01-08 14:48:00,35.6,27.8,29.02,SSE,158,9.6,10.5,73,0.00,,,0.00,WUHU216HW,2013-01-08 20:48:00,
2013-01-08 14:53:00,35.3,27.5,29.03,SE,135,5.1,9.8,73,0.00,,,0.00,WUHU216HW,2013-01-08 20:53:00,
2013-01-08 14:58:00,35.1,27.3,29.03,SSE,158,6.9,9.8,73,0.00,,,0.00,WUHU216HW,2013-01-08 20:58:00,
2013-01-08 15:03:00,34.9,27.1,29.03,SSE,158,4.9,9.8,73,0.00,,,0.00,WUHU216HW,2013-01-08 21:03:00,
2013-01-08 15:08:00,35.1,27.3,29.03,SE,135,11.2,11.2,73,0.00,,,0.00,WUHU216HW,2013-01-08 21:08:00,
2013-01-08 15:13:00,34.9,27.1,29.04,SSE,158,9.6,11.2,73,0.00,,,0.00,WUHU216HW,2013-01-08 21:13:00,
2013-01-08 15:18:00,34.9,27.1,29.05,South,180,1.8,10.3,73,0.00,,,0.00,WUHU216HW,2013-01-08 21:18:00,
2013-01-08 15:23:00,34.9,27.1,29.04,SSE,158,6.9,8.5,73,0.00,,,0.00,WUHU216HW,2013-01-08 21:23:00,
2013-01-08 15:28:00,34.9,27.1,29.05,SSE,158,4.3,8.5,73,0.00,,,0.00,WUHU216HW,2013-01-08 21:28:00,
2013-01-08 15:33:00,34.9,27.1,29.05,SE,135,3.6,5.8,73,0.00,,,0.00,WUHU216HW,2013-01-08 21:33:00,
2013-01-08 15:38:00,34.7,26.9,29.05,SE,135,3.8,6.3,73,0.00,,,0.00,WUHU216HW,2013-01-08 21:38:00,
2013-01-08 15:43:00,34.7,27.2,29.05,ESE,113,1.3,6.3,74,0.00,,,0.00,WUHU216HW,2013-01-08 21:43:00,
2013-01-08 15:48:00,34.6,27.0,29.04,SE,135,4.3,6.0,74,0.00,,,0.00,WUHU216HW,2013-01-08 21:48:00,
2013-01-08 15:53:00,34.2,26.6,29.05,SSE,158,3.4,6.3,74,0.00,,,0.00,WUHU216HW,2013-01-08 21:53:00,
2013-01-08 15:58:00,34.2,27.0,29.04,SE,135,0.2,6.3,75,0.00,,,0.00,WUHU216HW,2013-01-08 21:58:00,
2013-01-08 16:03:00,34.0,26.8,29.04,SSE,158,0.4,5.4,75,0.00,,,0.00,WUHU216HW,2013-01-08 22:03:00,
2013-01-08 16:08:00,34.0,26.8,29.04,SE,135,1.8,4.0,75,0.00,,,0.00,WUHU216HW,2013-01-08 22:08:00,
2013-01-08 16:13:00,34.0,27.2,29.02,SSE,158,1.6,4.7,76,0.00,,,0.00,WUHU216HW,2013-01-08 22:13:00,
2013-01-08 16:18:00,34.0,27.2,29.04,SE,135,2.9,4.7,76,0.00,,,0.00,WUHU216HW,2013-01-08 22:18:00,
2013-01-08 16:23:00,33.8,27.0,29.04,NNW,338,0.7,3.4,76,0.00,,,0.00,WUHU216HW,2013-01-08 22:23:00,
2013-01-08 16:28:00,33.8,27.0,29.04,NW,315,0.7,4.0,76,0.00,,,0.00,WUHU216HW,2013-01-08 22:28:00,
2013-01-08 16:33:00,33.8,27.0,29.04,SE,135,2.5,4.0,76,0.00,,,0.00,WUHU216HW,2013-01-08 22:33:00,
2013-01-08 16:38:00,33.7,27.1,29.04,WNW,293,1.8,3.6,77,0.00,,,0.00,WUHU216HW,2013-01-08 22:38:00,
2013-01-08 16:43:00,33.5,27.0,29.05,North,0,0.7,3.6,77,0.00,,,0.00,WUHU216HW,2013-01-08 22:43:00,
2013-01-08 16:48:00,33.5,27.0,29.04,SSE,158,1.8,2.7,77,0.00,,,0.00,WUHU216HW,2013-01-08 22:48:00,
2013-01-08 16:53:00,33.5,27.0,29.04,ENE,68,0.2,2.2,77,0.00,,,0.00,WUHU216HW,2013-01-08 22:53:00,
2013-01-08 16:58:00,33.5,27.3,29.05,North,0,1.8,2.2,78,0.00,,,0.00,WUHU216HW,2013-01-08 22:58:00,
2013-01-08 17:03:00,33.3,27.1,29.05,SE,135,0.4,2.0,78,0.00,,,0.00,WUHU216HW,2013-01-08 23:03:00,
2013-01-08 17:08:00,33.3,27.1,29.04,East,90,1.6,1.8,78,0.00,,,0.00,WUHU216HW,2013-01-08 23:08:00,
2013-01-08 17:13:00,33.3,27.1,29.04,East,90,0.2,2.7,78,0.00,,,0.00,WUHU216HW,2013-01-08 23:13:00,
2013-01-08 17:18:00,33.3,27.5,29.04,ENE,68,1.6,2.7,79,0.00,,,0.00,WUHU216HW,2013-01-08 23:18:00,
2013-01-08 17:23:00,33.3,27.1,29.04,East,90,0.9,2.9,78,0.00,,,0.00,WUHU216HW,2013-01-08 23:23:00,
2013-01-08 17:28:00,33.1,27.3,29.04,SSE,158,1.6,2.9,79,0.00,,,0.00,WUHU216HW,2013-01-08 23:28:00,
2013-01-08 17:33:00,33.1,27.6,29.04,SE,135,1.1,4.3,80,0.00,,,0.00,WUHU216HW,2013-01-08 23:33:00,
2013-01-08 17:38:00,33.1,27.6,29.04,NNW,338,0.7,4.3,80,0.00,,,0.00,WUHU216HW,2013-01-08 23:38:00,
2013-01-08 17:43:00,33.1,27.6,29.04,ENE,68,1.3,2.5,80,0.00,,,0.00,WUHU216HW,2013-01-08 23:43:00,
2013-01-08 17:48:00,33.1,27.6,29.04,NE,45,0.7,2.5,80,0.00,,,0.00,WUHU216HW,2013-01-08 23:48:00,
2013-01-08 17:53:00,33.1,27.6,29.05,WNW,293,1.8,3.1,80,0.00,,,0.00,WUHU216HW,2013-01-08 23:53:00,
2013-01-08 17:58:00,33.1,27.6,29.05,NNW,338,0.7,3.1,80,0.00,,,0.00,WUHU216HW,2013-01-08 23:58:00,
2013-01-08 18:03:00,33.1,27.6,29.05,West,270,3.1,3.1,80,0.00,,,0.00,WUHU216HW,2013-01-09 00:03:00,
2013-01-08 18:08:00,33.1,27.9,29.05,SSW,203,1.8,3.1,81,0.00,,,0.00,WUHU216HW,2013-01-09 00:08:00,
2013-01-08 18:13:00,32.9,27.7,29.05,West,270,1.8,2.0,81,0.00,,,0.00,WUHU216HW,2013-01-09 00:13:00,
2013-01-08 18:18:00,32.9,27.7,29.05,West,270,2.2,2.5,81,0.00,,,0.00,WUHU216HW,2013-01-09 00:18:00,
2013-01-08 18:23:00,33.1,27.9,29.05,NW,315,1.8,4.7,81,0.00,,,0.00,WUHU216HW,2013-01-09 00:23:00,
2013-01-08 18:28:00,33.1,27.9,29.05,WSW,248,2.0,4.7,81,0.00,,,0.00,WUHU216HW,2013-01-09 00:28:00,
2013-01-08 18:33:00,33.1,28.2,29.05,WNW,293,4.0,6.3,82,0.00,,,0.00,WUHU216HW,2013-01-09 00:33:00,
2013-01-08 18:38:00,33.1,27.9,29.05,WNW,293,4.0,6.3,81,0.00,,,0.00,WUHU216HW,2013-01-09 00:38:00,
2013-01-08 18:43:00,33.1,28.2,29.04,WNW,293,5.4,5.4,82,0.00,,,0.00,WUHU216HW,2013-01-09 00:43:00,
2013-01-08 18:48:00,33.1,27.9,29.05,NNW,338,3.6,5.6,81,0.00,,,0.00,WUHU216HW,2013-01-09 00:48:00,
2013-01-08 18:53:00,33.1,27.9,29.05,WNW,293,4.9,5.6,81,0.00,,,0.00,WUHU216HW,2013-01-09 00:53:00,
2013-01-08 18:58:00,33.1,28.2,29.05,West,270,4.9,7.8,82,0.00,,,0.00,WUHU216HW,2013-01-09 00:58:00,
2013-01-08 19:03:00,32.9,27.7,29.05,WNW,293,2.5,7.8,81,0.00,,,0.00,WUHU216HW,2013-01-09 01:03:00,
2013-01-08 19:08:00,32.8,27.5,29.05,West,270,4.3,5.4,81,0.00,,,0.00,WUHU216HW,2013-01-09 01:08:00,
2013-01-08 19:13:00,32.8,27.5,29.05,WSW,248,4.9,5.4,81,0.00,,,0.00,WUHU216HW,2013-01-09 01:13:00,
2013-01-08 19:18:00,32.6,27.5,29.06,West,270,5.1,5.1,81,0.00,,,0.00,WUHU216HW,2013-01-09 01:18:00,
2013-01-08 19:23:00,32.4,27.3,29.06,West,270,3.6,5.1,81,0.00,,,0.00,WUHU216HW,2013-01-09 01:23:00,
2013-01-08 19:28:00,32.0,26.9,29.06,West,270,2.5,3.6,81,0.00,,,0.00,WUHU216HW,2013-01-09 01:28:00,
2013-01-08 19:33:00,32.0,26.9,29.06,West,270,2.7,5.4,81,0.00,,,0.00,WUHU216HW,2013-01-09 01:33:00,
2013-01-08 19:38:00,31.5,26.4,29.06,West,270,4.7,5.4,81,0.00,,,0.00,WUHU216HW,2013-01-09 01:38:00,
2013-01-08 19:43:00,31.1,26.3,29.06,West,270,3.4,4.7,82,0.00,,,0.00,WUHU216HW,2013-01-09 01:43:00,
2013-01-08 19:48:00,31.0,25.8,29.07,SW,225,0.7,3.6,81,0.00,,,0.00,WUHU216HW,2013-01-09 01:48:00,
2013-01-08 19:53:00,30.8,25.7,29.07,WNW,293,2.2,4.7,81,0.00,,,0.00,WUHU216HW,2013-01-09 01:53:00,
2013-01-08 19:58:00,30.6,25.5,29.07,WNW,293,2.9,4.7,81,0.00,,,0.00,WUHU216HW,2013-01-09 01:58:00,
2013-01-08 20:03:00,30.4,25.6,29.07,West,270,5.6,5.6,82,0.00,,,0.00,WUHU216HW,2013-01-09 02:03:00,
2013-01-08 20:08:00,30.2,25.4,29.08,West,270,2.9,5.6,82,0.00,,,0.00,WUHU216HW,2013-01-09 02:08:00,
2013-01-08 20:13:00,30.1,25.2,29.08,WNW,293,2.5,4.3,82,0.00,,,0.00,WUHU216HW,2013-01-09 02:13:00,
2013-01-08 20:18:00,29.9,25.0,29.08,WNW,293,1.8,5.8,82,0.00,,,0.00,WUHU216HW,2013-01-09 02:18:00,
2013-01-08 20:23:00,29.7,25.2,29.08,WSW,248,3.4,5.8,83,0.00,,,0.00,WUHU216HW,2013-01-09 02:23:00,
2013-01-08 20:28:00,29.7,25.2,29.08,WSW,248,3.4,5.6,83,0.00,,,0.00,WUHU216HW,2013-01-09 02:28:00,
2013-01-08 20:33:00,29.7,25.2,29.09,West,270,4.7,4.7,83,0.00,,,0.00,WUHU216HW,2013-01-09 02:33:00,
2013-01-08 20:38:00,29.9,25.4,29.09,West,270,2.5,4.7,83,0.00,,,0.00,WUHU216HW,2013-01-09 02:38:00,
2013-01-08 20:43:00,29.9,25.4,29.09,WNW,293,2.0,3.6,83,0.00,,,0.00,WUHU216HW,2013-01-09 02:43:00,
2013-01-08 20:48:00,29.9,25.4,29.09,West,270,1.3,4.0,83,0.00,,,0.00,WUHU216HW,2013-01-09 02:48:00,
2013-01-08 20:53:00,30.2,25.8,29.09,WNW,293,4.0,4.7,83,0.00,,,0.00,WUHU216HW,2013-01-09 02:53:00,
2013-01-08 20:58:00,30.2,25.8,29.09,West,270,3.1,5.4,83,0.00,,,0.00,WUHU216HW,2013-01-09 02:58:00,
2013-01-08 21:03:00,30.4,25.9,29.09,NW,315,3.1,5.4,83,0.00,,,0.00,WUHU216HW,2013-01-09 03:03:00,
2013-01-08 21:08:00,30.6,25.7,29.09,SW,225,4.3,5.4,82,0.00,,,0.00,WUHU216HW,2013-01-09 03:08:00,
2013-01-08 21:13:00,30.6,25.7,29.09,WNW,293,4.0,5.4,82,0.00,,,0.00,WUHU216HW,2013-01-09 03:13:00,
2013-01-08 21:18:00,30.8,25.9,29.09,West,270,2.5,4.5,82,0.00,,,0.00,WUHU216HW,2013-01-09 03:18:00,
2013-01-08 21:23:00,31.0,26.1,29.10,WSW,248,2.9,4.9,82,0.00,,,0.00,WUHU216HW,2013-01-09 03:23:00,
2013-01-08 21:28:00,31.0,26.1,29.10,WSW,248,3.4,4.9,82,0.00,,,0.00,WUHU216HW,2013-01-09 03:28:00,
2013-01-08 21:33:00,31.0,26.1,29.10,WSW,248,1.6,4.3,82,0.00,,,0.00,WUHU216HW,2013-01-09 03:33:00,
2013-01-08 21:38:00,31.1,26.3,29.10,WNW,293,2.2,4.7,82,0.00,,,0.00,WUHU216HW,2013-01-09 03:38:00,
2013-01-08 21:43:00,31.1,26.3,29.11,West,270,3.8,4.7,82,0.00,,,0.00,WUHU216HW,2013-01-09 03:43:00,
2013-01-08 21:48:00,31.3,26.5,29.12,West,270,2.5,4.3,82,0.00,,,0.00,WUHU216HW,2013-01-09 03:48:00,
2013-01-08 21:53:00,31.3,26.2,29.12,West,270,3.1,4.3,81,0.00,,,0.00,WUHU216HW,2013-01-09 03:53:00,
2013-01-08 21:58:00,31.5,26.6,29.12,West,270,5.1,5.1,82,0.00,,,0.00,WUHU216HW,2013-01-09 03:58:00,
2013-01-08 22:03:00,31.7,26.8,29.12,WSW,248,4.9,6.3,82,0.00,,,0.00,WUHU216HW,2013-01-09 04:03:00,
2013-01-08 22:08:00,31.9,27.0,29.12,WSW,248,6.9,6.9,82,0.00,,,0.00,WUHU216HW,2013-01-09 04:08:00,
2013-01-08 22:13:00,32.0,27.2,29.12,WSW,248,2.7,6.9,82,0.00,,,0.00,WUHU216HW,2013-01-09 04:13:00,
2013-01-08 22:18:00,32.2,27.4,29.12,West,270,3.1,6.5,82,0.00,,,0.00,WUHU216HW,2013-01-09 04:18:00,
2013-01-08 22:23:00,32.2,27.4,29.13,WNW,293,4.3,5.8,82,0.00,,,0.00,WUHU216HW,2013-01-09 04:23:00,
2013-01-08 22:28:00,32.2,27.1,29.13,West,270,4.5,4.7,81,0.00,,,0.00,WUHU216HW,2013-01-09 04:28:00,
2013-01-08 22:33:00,32.0,26.9,29.13,WSW,248,2.5,4.5,81,0.00,,,0.00,WUHU216HW,2013-01-09 04:33:00,
2013-01-08 22:38:00,31.9,26.7,29.14,WNW,293,2.5,4.0,81,0.00,,,0.00,WUHU216HW,2013-01-09 04:38:00,
2013-01-08 22:43:00,31.5,26.4,29.14,West,270,4.0,4.0,81,0.00,,,0.00,WUHU216HW,2013-01-09 04:43:00,